Change the Weather History Date:

Tuesday, October 1, 2013

  Actual Average Record
Temperature  
Mean Temperature 63 °F 58 °F  
Max Temperature 78 °F 72 °F 95 °F (1899)
Min Temperature 47 °F 43 °F 26 °F (1985)
Degree Days  
Heating Degree Days 2 8  
Month to date heating degree days 2 8  
Cooling Degree Days 0 1  
Month to date cooling degree days 0 1  
Year to date cooling degree days 1166 958  
Growing Degree Days 12 (Base 50)    
Moisture  
Dew Point 38 °F    
Average Humidity 48    
Maximum Humidity 77    
Minimum Humidity 19    
Precipitation  
Precipitation 0.00 in 0.05 in 0.95 in (1945)
Sea Level Pressure  
Sea Level Pressure 29.92 in    
Wind  
Wind Speed 8 mph (ENE)    
Max Wind Speed 18 mph    
Max Gust Speed 24 mph    
Visibility 10 miles    
Events      
T = Trace of Precipitation, MM = Missing Value Source: NWS Daily Summary

Daily Weather History Graph

Daily Weather History Graph

Search for Another Location

Airport or City:

Trip Planner

Search our weather history database for the weather conditions in past years. The results will help you decide how hot, cold, wet, or windy it might be!

Date:

Astronomy

Oct. 01, 2013 Rise Set
Actual Time 6:43 AM MDT 6:28 PM MDT
Civil Twilight 6:16 AM MDT 6:55 PM MDT
Nautical Twilight 5:44 AM MDT 7:26 PM MDT
Astronomical Twilight 5:12 AM MDT 7:58 PM MDT
Moon 3:18 AM MDT (10/1) 4:33 PM MDT (10/1)
Length of Visible Light 12h 39m
Length of Day
11h 44m
Waning Crescent, 11% of the Moon is Illuminated
Oct 1
Waning Crescent
Oct 4
New
Oct 11
First Quarter
Oct 18
Full
Oct 26
Last Quarter

Hourly Weather History & Observations

Time (MDT) Temp. Dew Point Humidity Pressure Visibility Wind Dir Wind Speed Gust Speed Precip Events Conditions
12:53 AM 55.9 °F 46.0 °F 69% 29.75 in 10.0 mi NNW 17.3 mph 24.2 mph N/A   Clear
1:53 AM 52.0 °F 44.1 °F 74% 29.75 in 10.0 mi Calm Calm - N/A   Clear
2:53 AM 55.0 °F 46.0 °F 72% 29.79 in 10.0 mi NNE 19.6 mph 24.2 mph N/A   Clear
3:53 AM 54.0 °F 39.9 °F 59% 29.83 in 10.0 mi NNE 15.0 mph - N/A   Clear
4:53 AM 51.1 °F 39.0 °F 63% 29.88 in 10.0 mi North 9.2 mph - N/A   Clear
5:53 AM 48.0 °F 37.9 °F 68% 29.92 in 10.0 mi North 8.1 mph - N/A   Clear
6:53 AM 46.9 °F 36.0 °F 66% 29.98 in 10.0 mi NNW 4.6 mph - N/A   Clear
7:53 AM 51.1 °F 36.0 °F 56% 30.01 in 10.0 mi North 5.8 mph - N/A   Clear
8:53 AM 59.0 °F 35.1 °F 41% 30.00 in 10.0 mi NE 11.5 mph 19.6 mph N/A   Clear
9:53 AM 64.0 °F 30.9 °F 29% 30.01 in 10.0 mi NE 15.0 mph - N/A   Clear
10:53 AM 68.0 °F 28.0 °F 22% 29.99 in 10.0 mi ENE 12.7 mph 23.0 mph N/A   Clear
11:53 AM 72.0 °F 28.9 °F 20% 29.97 in 10.0 mi ESE 12.7 mph 20.7 mph N/A   Clear
12:53 PM 75.0 °F 30.0 °F 19% 29.95 in 10.0 mi East 13.8 mph 19.6 mph N/A   Clear
1:53 PM 75.9 °F 32.0 °F 20% 29.94 in 10.0 mi ESE 8.1 mph 16.1 mph N/A   Clear
2:53 PM 75.9 °F 33.1 °F 21% 29.92 in 10.0 mi ESE 9.2 mph - N/A   Clear
3:53 PM 77.0 °F 35.1 °F 22% 29.91 in 10.0 mi SE 11.5 mph 17.3 mph N/A   Clear
4:53 PM 75.0 °F 37.0 °F 25% 29.91 in 10.0 mi ESE 11.5 mph - N/A   Clear
5:53 PM 71.1 °F 39.0 °F 31% 29.92 in 10.0 mi ESE 8.1 mph - N/A   Clear
6:53 PM 62.1 °F 41.0 °F 46% 29.94 in 10.0 mi ESE 5.8 mph - N/A   Clear
7:53 PM 55.9 °F 42.1 °F 60% 29.96 in 10.0 mi ESE 6.9 mph - N/A   Clear
8:53 PM 54.0 °F 43.0 °F 66% 29.94 in 10.0 mi SE 5.8 mph - N/A   Clear
9:53 PM 53.1 °F 43.0 °F 69% 29.94 in 10.0 mi SE 4.6 mph - N/A   Clear
10:53 PM 52.0 °F 44.1 °F 74% 29.94 in 10.0 mi Calm Calm - N/A   Clear
11:53 PM 52.0 °F 45.0 °F 77% 29.93 in 10.0 mi Calm Calm - N/A   Clear